Probability
0 0 0 0 0 0 0 0 0 1 2 2 6 9 8 7 5 6 7 7 5 4 5 7 10 13 15 15 17 19 21 21 18 14 13 15 19 18 14 12 12 14 15 14
0 0 0 0 0 0 0 0 1 2 3 4 8 10 9 7 8 8 8 7 5 5 6 8 10 12 13 13 14 18 21 21 18 15 15 18 22 22 19 16 16 16 16 15
0 0 0 0 0 0 0 1 1 3 5 7 10 10 9 9 10 10 9 8 7 7 8 9 10 11 13 13 15 19 22 21 18 17 18 19 22 24 23 21 18 16 16 16
0 0 0 0 0 0 1 1 2 4 7 8 8 7 6 7 7 7 7 8 10 11 12 12 13 15 17 17 19 21 22 21 18 18 18 18 19 21 23 23 20 17 15 15
0 0 0 0 0 0 1 1 4 6 6 5 4 3 3 3 3 4 6 10 12 14 16 17 19 21 22 21 20 20 20 19 18 17 17 18 19 21 25 26 24 20 17 15
0 0 0 0 0 0 1 1 3 4 3 1 2 2 2 2 3 4 8 13 15 15 17 21 23 23 23 21 18 17 17 16 16 16 17 19 21 22 24 26 26 23 21 19
0 0 0 0 1 1 1 1 2 2 2 1 2 3 3 4 5 6 10 14 16 16 17 20 21 21 20 19 17 16 15 13 13 14 17 19 20 21 21 22 22 22 21 20
0 0 0 0 1 1 1 1 2 2 2 3 4 4 5 6 6 7 10 14 17 17 16 16 16 16 16 16 15 15 13 11 12 13 16 18 19 19 19 18 18 18 18 16
0 0 0 0 0 0 0 1 3 3 3 4 4 5 5 6 7 8 11 13 15 16 15 13 12 13 13 13 13 12 11 11 12 13 14 16 17 17 16 15 15 16 15 11
1 1 0 0 0 0 0 2 3 3 3 4 4 4 6 7 8 9 11 13 14 14 13 12 12 12 11 11 11 11 11 12 13 14 14 14 14 13 12 12 13 13 12 10
1 1 0 0 0 0 0 1 2 2 2 2 2 5 6 7 8 9 11 13 14 12 12 13 12 10 9 8 9 9 11 13 15 15 14 14 13 11 10 10 10 10 9 10
1 0 0 0 0 0 0 0 1 2 2 1 2 4 5 6 8 11 13 15 15 13 12 12 12 10 7 6 6 8 10 13 15 15 15 13 12 11 10 9 8 6 6 6
0 0 0 0 0 0 0 0 1 2 3 3 3 4 5 8 12 15 15 16 16 14 12 12 11 8 7 6 5 6 9 10 12 13 13 13 12 12 10 9 7 4 2 2
0 0 0 0 0 0 0 0 0 1 3 4 4 5 7 12 16 17 16 15 14 12 10 9 9 7 5 5 5 6 7 8 9 10 11 11 12 11 10 9 8 5 2 0
0 0 0 0 0 0 0 0 0 1 3 5 5 7 11 15 16 16 14 13 11 10 8 7 7 6 4 5 6 6 6 6 7 8 9 9 9 8 7 7 8 7 4 1
0 0 0 0 0 0 0 0 0 0 1 2 5 8 12 14 14 13 11 10 9 7 6 6 6 6 6 6 7 7 6 6 5 5 6 6 6 5 5 5 6 6 4 2
0 0 0 0 0 0 0 0 0 0 1 2 5 8 10 12 12 10 8 7 7 7 6 6 6 6 6 7 7 7 5 4 3 2 3 4 4 4 4 5 5 4 3 2
0 0 0 0 0 0 0 0 0 1 3 6 8 8 9 10 9 7 6 6 6 6 6 6 6 6 6 6 6 6 4 2 1 0 1 3 4 4 5 5 4 4 3 2
0 0 1 1 1 1 1 0 0 1 4 7 9 8 8 8 7 5 5 6 6 6 6 6 6 6 6 6 5 4 2 0 0 0 1 3 5 5 5 4 4 4 3 3
1 1 2 2 2 2 2 1 1 1 4 6 7 7 6 5 3 3 3 4 5 5 5 5 6 5 4 4 4 2 1 0 0 0 1 3 5 4 4 3 3 4 3 3
2 3 3 3 3 3 4 3 3 3 4 6 6 6 4 2 1 1 1 1 2 2 2 3 3 3 3 3 3 2 0 0 0 0 1 2 3 3 3 3 3 3 3 3
3 3 3 3 3 4 5 5 4 3 4 5 6 6 5 2 0 0 0 0 0 0 0 1 1 1 2 3 4 3 1 0 0 1 1 2 3 3 3 3 3 3 3 3
2 3 4 3 4 5 6 5 4 3 3 4 5 6 6 3 1 0 0 0 1 0 0 0 0 0 1 2 4 3 1 0 0 1 2 3 3 3 3 3 3 2 3 3
2 4 5 4 4 5 5 4 3 3 3 3 4 5 5 4 1 0 0 0 0 0 0 0 0 0 0 0 1 1 0 0 0 1 3 3 3 3 3 3 3 2 3 3
3 4 5 5 5 4 4 3 3 3 3 3 3 3 3 2 1 0 0 0 0 0 0 0 0 0 0 0 0 0 0 0 0 1 2 3 3 3 3 3 2 3 3 3
3 3 4 4 4 3 3 3 3 3 3 2 2 1 1 1 0 0 0 0 0 0 0 0 0 0 0 1 1 1 1 1 1 1 3 3 3 3 3 2 2 2 2 2
3 3 3 3 3 3 3 3 3 3 2 1 1 0 0 0 0 0 0 0 0 0 0 0 0 0 1 2 2 2 2 2 2 2 3 3 3 3 3 2 2 1 1 1
Wind_Speed
3 4 2 3 5 3 1 4 6 6 6 6 6 5 6 6 5 5 3 3 3 3 2 2 2 2 3 3 3 3 4 4 5 4 4 4 3 3 3 3 3 3 3 3
3 4 4 4 6 3 2 1 3 4 2 3 3 4 4 4 6 5 3 3 3 3 3 3 3 3 3 2 2 2 3 4 3 3 3 3 3 3 3 3 3 2 3 3
3 4 4 4 4 1 1 0 4 5 4 3 4 4 5 5 5 6 5 4 4 4 4 3 3 3 3 3 2 2 2 3 2 2 2 3 3 2 2 3 2 3 3 3
0 4 1 6 3 2 4 3 2 3 4 4 4 4 3 4 5 5 4 4 3 3 2 2 1 1 2 2 3 2 1 2 2 2 2 2 2 2 3 2 3 3 3 3
3 1 4 5 4 1 2 2 2 5 4 4 4 5 3 0 4 4 4 4 3 3 3 2 2 2 2 2 2 2 1 1 2 2 2 1 2 3 3 2 2 3 2 3
3 3 4 5 5 2 6 1 3 3 4 2 4 3 3 2 2 2 2 3 3 3 3 3 2 3 3 2 1 1 1 1 1 2 2 2 3 3 2 2 3 2 2 2
3 3 5 5 4 3 3 5 3 2 3 3 2 4 3 1 2 2 2 2 3 3 3 2 2 4 3 2 2 2 1 1 1 1 2 2 2 2 2 2 1 1 2 2
3 3 6 4 2 3 5 3 2 3 3 3 3 2 2 2 1 1 2 2 2 3 2 1 2 4 3 2 3 2 1 0 1 1 1 1 1 2 1 1 1 2 2 2
5 6 5 1 3 3 4 4 3 4 4 5 4 2 1 1 1 1 2 2 2 3 2 0 1 3 2 2 1 0 0 0 1 2 1 1 1 1 2 1 1 2 2 3
1 1 1 1 2 2 3 3 4 5 5 5 4 2 1 0 0 0 1 2 2 3 2 1 0 1 1 1 1 1 0 1 1 1 2 1 1 1 1 1 2 2 2 3
0 1 2 3 1 2 2 3 3 3 3 4 4 3 1 1 1 1 1 2 2 3 3 2 1 1 1 1 0 0 1 1 1 1 1 1 1 1 2 3 3 3 3 3
4 4 2 3 2 1 3 3 2 3 2 2 3 3 2 1 2 2 2 2 2 2 2 1 1 1 1 1 1 1 1 2 2 2 2 1 1 2 4 3 4 3 4 3
4 3 3 2 1 2 3 2 2 3 3 2 1 2 2 1 1 1 1 2 3 3 3 2 1 1 2 1 1 1 2 2 2 2 2 2 1 1 2 4 5 4 4 3
2 3 2 1 0 1 3 2 2 3 2 2 2 2 2 1 1 1 1 2 2 2 2 2 2 2 3 2 1 1 2 2 2 2 2 2 2 2 2 2 3 4 4 5
1 2 3 1 1 1 2 2 3 2 1 1 2 2 2 2 1 0 1 1 2 2 2 2 2 3 3 1 0 1 2 2 2 2 2 2 2 2 2 2 2 3 3 3
2 2 2 3 2 2 2 3 2 1 1 1 1 1 2 2 2 1 1 2 2 1 1 1 2 3 2 1 1 1 1 3 3 2 2 2 2 2 2 2 2 2 3 3
3 2 2 2 1 1 1 1 2 1 1 1 1 1 2 2 2 1 1 0 1 2 2 2 3 2 1 1 1 1 1 2 4 3 2 2 2 2 2 2 3 3 3 3
4 5 5 4 4 2 1 1 1 1 1 1 1 2 2 2 1 1 1 0 1 1 2 2 2 2 1 1 1 2 2 2 3 3 2 2 2 2 1 2 3 3 2 2
3 3 3 3 3 3 2 2 1 0 0 1 2 2 2 1 1 1 0 0 0 1 3 3 2 1 2 3 2 2 2 2 3 2 2 2 2 1 1 1 2 2 2 1
2 3 3 3 2 3 2 1 1 1 1 1 2 1 0 1 1 1 1 1 2 3 3 2 2 2 2 3 3 2 2 2 2 2 2 1 1 2 1 1 1 1 1 1
3 3 4 3 2 1 1 2 2 1 1 2 2 2 2 1 1 1 1 1 3 3 2 2 1 2 2 2 3 2 2 2 2 2 2 2 2 2 2 2 1 1 1 1
2 3 3 3 2 1 1 1 2 2 1 1 1 2 1 1 1 1 1 2 3 3 2 1 1 2 3 2 1 1 2 2 2 2 2 2 2 2 2 1 2 2 1 1
1 2 2 2 2 2 1 1 1 2 2 2 2 2 2 2 2 2 2 3 2 2 2 2 3 4 4 2 1 1 1 2 2 2 2 2 2 2 2 2 2 2 1 1
0 1 1 1 2 2 1 1 1 1 1 1 2 2 2 1 1 2 2 2 2 2 2 2 4 4 3 1 1 1 2 2 2 2 2 2 2 1 1 1 2 2 2 2
0 1 2 3 2 1 2 1 1 1 1 0 1 1 1 1 2 2 1 1 1 2 2 3 4 4 3 2 2 2 2 2 2 2 1 1 1 2 1 1 1 1 1 1
1 1 2 2 2 2 2 1 1 1 1 0 1 1 1 0 0 0 1 1 2 2 2 2 3 3 3 3 3 3 3 3 2 2 1 1 1 1 2 2 2 1 1 1
0 0 0 0 0 1 1 1 1 1 1 1 1 1 1 1 0 1 1 1 1 2 2 2 2 2 1 1 2 2 2 2 1 1 1 0 0 1 1 2 1 1 1 1
Wind_Direction
226 255 307 321 322 341 66 179 174 205 184 207 200 172 161 153 145 130 126 128 139 142 167 159 158 170 171 178 184 185 181 188 204 206 202 204 210 215 223 226 229 227 229 239
338 333 352 351 337 338 342 131 144 130 183 223 147 107 107 126 131 126 131 139 155 157 168 166 169 181 180 179 177 157 168 193 200 195 199 208 216 216 222 236 238 231 235 243
297 316 18 333 307 311 338 19 144 163 204 159 115 122 150 154 139 137 153 172 177 183 185 191 185 171 177 182 164 156 171 182 178 176 191 210 213 211 227 236 234 241 247 241
132 30 237 246 284 86 80 49 108 123 135 144 147 142 141 157 146 147 154 167 176 175 174 164 166 156 152 142 135 145 163 182 195 193 207 217 219 224 230 229 231 238 248 251
119 170 271 299 322 347 113 10 61 116 109 107 102 72 34 126 143 164 173 160 154 155 157 141 139 135 115 111 114 117 154 192 214 208 210 221 240 248 237 222 237 242 245 249
132 164 223 252 287 273 97 24 315 106 119 115 84 83 261 248 150 143 139 128 126 110 101 120 141 121 108 116 126 177 215 235 248 212 209 228 243 249 251 231 238 247 259 253
162 201 247 260 286 48 116 225 249 141 138 141 161 201 217 163 118 134 122 121 126 115 110 131 134 119 128 147 208 225 221 263 298 262 241 239 246 254 261 262 260 259 265 267
155 183 248 287 52 130 206 212 142 116 114 107 112 111 91 90 106 112 103 103 120 110 103 131 126 121 144 187 220 215 183 333 318 293 280 297 285 286 279 257 252 259 265 284
184 208 236 229 150 175 155 133 129 128 129 124 121 115 97 73 74 128 155 138 130 123 107 48 106 125 145 222 231 175 62 317 298 299 285 281 263 285 297 280 262 266 261 271
82 278 298 48 89 102 121 138 145 141 137 133 134 137 114 97 20 178 158 148 140 134 138 148 0 133 178 241 220 121 122 280 295 301 300 310 308 285 281 273 265 263 260 266
26 272 15 7 22 101 101 109 117 118 123 139 139 147 159 196 234 198 147 159 153 158 160 180 192 196 240 271 181 103 252 265 279 280 272 288 308 290 269 256 233 233 247 244
218 230 182 254 277 101 97 101 117 111 96 114 145 155 160 220 225 198 183 165 143 143 155 178 209 255 262 264 232 214 274 268 259 265 260 246 278 326 327 297 299 281 248 234
200 205 170 193 21 75 102 95 102 117 135 139 138 148 148 191 205 171 178 168 165 167 170 174 248 284 280 282 266 238 251 271 271 257 245 242 238 244 297 321 328 322 294 274
163 102 81 67 88 80 98 90 97 94 105 136 133 120 115 124 111 121 166 181 172 172 170 159 171 244 263 263 274 284 273 278 280 254 240 238 238 240 241 262 293 303 300 285
174 129 158 140 52 59 70 74 76 68 81 75 104 113 119 121 118 119 158 136 127 137 162 171 191 241 259 241 270 293 292 285 287 276 266 256 251 247 253 260 262 275 295 299
154 105 99 90 66 37 63 74 76 50 101 104 104 126 140 140 132 83 72 121 128 159 211 208 228 250 254 228 273 307 296 297 300 283 274 276 270 259 265 265 267 270 271 270
151 161 146 143 116 83 90 116 127 120 119 125 180 150 113 95 82 67 38 53 155 181 205 219 245 255 251 243 236 269 281 291 302 300 278 265 264 262 262 260 260 265 267 263
183 192 178 172 164 143 88 89 97 81 158 184 141 117 113 119 152 199 238 306 35 346 286 255 249 252 243 253 256 260 259 262 266 267 272 269 266 254 253 268 263 263 277 287
172 173 159 152 145 132 133 134 143 196 170 131 129 149 165 173 186 206 222 102 126 278 279 270 261 244 248 270 284 259 260 269 279 280 276 281 284 270 258 268 279 286 283 288
124 125 121 118 109 121 136 153 151 131 127 130 124 113 112 213 197 195 203 232 238 238 249 257 247 246 252 265 280 266 266 273 279 288 288 278 269 271 263 256 260 267 279 285
117 116 118 124 115 106 135 155 145 152 165 139 142 167 201 233 203 161 160 274 284 271 261 269 268 256 255 274 283 276 275 280 276 269 265 263 259 256 259 268 280 279 279 286
130 128 137 142 141 201 232 163 158 169 168 165 170 171 172 214 251 254 237 237 253 266 271 271 264 268 276 285 282 280 285 282 278 269 254 250 248 254 264 267 263 259 263 262
134 146 156 167 184 205 216 155 164 164 169 181 189 191 198 217 208 197 259 271 260 281 291 279 280 285 286 287 282 281 294 290 278 275 264 257 253 245 239 243 242 241 246 255
141 176 158 143 114 101 98 267 252 181 175 187 199 196 187 199 268 256 239 260 259 271 284 282 289 296 296 294 287 286 282 275 271 272 276 277 271 258 246 244 244 241 240 246
158 211 130 117 115 156 182 181 86 80 105 82 283 256 214 182 200 248 255 269 274 281 293 292 287 294 300 292 283 274 266 264 267 271 274 276 289 291 283 267 247 245 248 242
186 215 201 188 186 188 185 166 172 217 205 250 294 291 289 260 198 228 273 282 280 285 286 283 284 288 285 281 280 279 274 278 281 275 268 261 278 291 288 270 255 231 213 208
120 198 158 62 249 191 171 164 175 195 192 186 228 261 261 244 231 278 290 305 308 300 299 298 297 300 305 306 308 304 309 316 319 324 343 13 8 330 302 285 271 243 193 186